Frankfort, KY

4:58 AM EDT on April 29, 2017 (GMT -0400)
Capital City

Weather History for KFFT - December, 2012

Change the Weather History Date:

Wednesday, December 5, 2012

  Actual Average Record
Temperature  
Mean Temperature 43 °F 38 °F  
Max Temperature 54 °F 48 °F 73 °F (1998)
Min Temperature 32 °F 29 °F 10 °F (2002)
Degree Days  
Heating Degree Days 22 27  
Month to date heating degree days 48 130  
Since 1 July heating degree days 1135 1041  
Cooling Degree Days 0 0  
Month to date cooling degree days 0 0  
Year to date cooling degree days 1310 1155  
Moisture  
Dew Point 36 °F    
Average Humidity 75    
Maximum Humidity 100    
Minimum Humidity 50    
Precipitation  
Precipitation 0.00 in 0.15 in 2.80 in (1922)
Month to date precipitation 0.97 0.71  
Year to date precipitation 35.56 42.32  
Sea Level Pressure  
Sea Level Pressure 30.29 in    
Wind  
Wind Speed 3 mph (NNE)    
Max Wind Speed 10 mph    
Max Gust Speed 14 mph    
Visibility 5 miles    
Events Fog    
T = Trace of Precipitation, MM = Missing Value Source: NWS Daily Summary

Daily Weather History Graph

Daily Weather History Graph

Search for Another Location

Airport or City:

Trip Planner

Search our weather history database for the weather conditions in past years. The results will help you decide how hot, cold, wet, or windy it might be!

Date:

Astronomy

Dec. 05, 2012 Rise Set
Actual Time 7:41 AM EST 5:19 PM EST
Civil Twilight 7:12 AM EST 5:48 PM EST
Nautical Twilight 6:39 AM EST 6:21 PM EST
Astronomical Twilight 6:07 AM EST 6:53 PM EST
Moon No Moon Rise 12:08 PM EST (12/5)
Length of Visible Light 10h 36m
Length of Day
9h 37m
Waning Gibbous, 60% of the Moon is Illuminated
Dec 5
Waning Gibbous
Dec 6
Last Quarter
Dec 13
New
Dec 20
First Quarter
Dec 28
Full

Hourly Weather History & Observations

Time (EST) Temp. Windchill Dew Point Humidity Pressure Visibility Wind Dir Wind Speed Gust Speed Precip Events Conditions
12:53 AM 45.0 °F - 43.0 °F 93% 30.22 in 10.0 mi Calm Calm - N/A   Partly Cloudy
1:53 AM 43.0 °F - 42.1 °F 97% 30.25 in 9.0 mi Calm Calm - N/A   Clear
2:36 AM 42.8 °F - 42.8 °F 100% 30.26 in 2.5 mi Calm Calm - N/A   Clear
2:44 AM 42.8 °F - 41.0 °F 93% 30.27 in 1.0 mi Calm Calm - N/A   Mist
2:51 AM 41.0 °F - 41.0 °F 100% 30.27 in 0.5 mi Calm Calm - N/A Fog Fog
2:53 AM 41.0 °F - 39.9 °F 96% 30.27 in 0.5 mi Calm Calm - N/A Fog Fog
3:53 AM 37.9 °F - 37.9 °F 100% 30.27 in 1.0 mi Calm Calm - N/A   Mist
4:05 AM 37.4 °F - 37.4 °F 100% 30.27 in 2.0 mi Calm Calm - N/A   Partly Cloudy
4:11 AM 39.2 °F - 37.4 °F 93% 30.27 in 1.0 mi Calm Calm - N/A   Mist
4:33 AM 37.4 °F - 35.6 °F 93% 30.27 in 0.5 mi Calm Calm - N/A Fog Fog
4:53 AM 36.0 °F - 36.0 °F 100% 30.28 in 1.2 mi Calm Calm - N/A   Mostly Cloudy
4:57 AM 37.4 °F - 35.6 °F 93% 30.27 in 0.8 mi Calm Calm - N/A   Mist
5:53 AM 34.0 °F - 34.0 °F 100% 30.29 in 0.8 mi Calm Calm - N/A   Mist
6:02 AM 33.8 °F - 33.8 °F 100% 30.28 in 1.0 mi Calm Calm - N/A   Mist
6:09 AM 33.8 °F - 33.8 °F 100% 30.28 in 0.8 mi Calm Calm - N/A   Mist
6:17 AM 33.8 °F - 33.8 °F 100% 30.29 in 1.2 mi Calm Calm - N/A   Overcast
6:28 AM 33.8 °F - 33.8 °F 100% 30.29 in 0.8 mi Calm Calm - N/A   Mist
6:42 AM 33.8 °F - 33.8 °F 100% 30.30 in 1.2 mi Calm Calm - N/A   Mostly Cloudy
6:48 AM 33.8 °F - 33.8 °F 100% 30.30 in 2.0 mi Calm Calm - N/A   Scattered Clouds
6:53 AM 34.0 °F - 33.1 °F 96% 30.31 in 3.0 mi Calm Calm - N/A   Scattered Clouds
7:01 AM 33.8 °F - 33.8 °F 100% 30.30 in 2.0 mi Calm Calm - N/A   Partly Cloudy
7:11 AM 33.8 °F - 32.0 °F 93% 30.31 in 3.0 mi Calm Calm - N/A   Mostly Cloudy
7:32 AM 33.8 °F - 32.0 °F 93% 30.32 in 1.5 mi Calm Calm - N/A   Overcast
7:35 AM 33.8 °F - 32.0 °F 93% 30.32 in 0.8 mi Calm Calm - N/A   Mist
7:53 AM 33.1 °F - 32.0 °F 96% 30.33 in 0.2 mi Calm Calm - N/A Fog Fog
9:48 AM 39.2 °F - 39.2 °F 100% 30.34 in 1.2 mi Calm Calm - N/A   Mostly Cloudy
9:53 AM 39.9 °F - 39.9 °F 100% 30.35 in 4.0 mi Calm Calm - N/A   Mostly Cloudy
10:03 AM 42.8 °F - 41.0 °F 93% 30.34 in 10.0 mi Calm Calm - N/A   Scattered Clouds
10:53 AM 46.9 °F - 39.9 °F 77% 30.35 in 10.0 mi North 5.8 mph - N/A   Clear
11:53 AM 50.0 °F - 39.9 °F 68% 30.33 in 10.0 mi Variable 5.8 mph - N/A   Clear
12:53 PM 52.0 °F - 37.9 °F 59% 30.31 in 10.0 mi Variable 4.6 mph - N/A   Clear
1:53 PM 53.1 °F - 39.0 °F 59% 30.30 in 10.0 mi NNE 4.6 mph - N/A   Clear
2:53 PM 54.0 °F - 37.0 °F 53% 30.28 in 10.0 mi NNE 5.8 mph - N/A   Clear
3:53 PM 54.0 °F - 35.1 °F 49% 30.28 in 10.0 mi North 4.6 mph - N/A   Clear
4:53 PM 52.0 °F - 36.0 °F 54% 30.28 in 10.0 mi North 3.5 mph - N/A   Clear
5:53 PM 48.0 °F - 37.0 °F 66% 30.29 in 10.0 mi North 3.5 mph - N/A   Clear
6:53 PM 45.0 °F 42.6 °F 36.0 °F 71% 30.28 in 10.0 mi NNE 4.6 mph - N/A   Clear
7:53 PM 44.1 °F 40.8 °F 35.1 °F 71% 30.29 in 10.0 mi NNE 5.8 mph - N/A   Clear
8:53 PM 42.1 °F 38.4 °F 33.1 °F 70% 30.29 in 10.0 mi NNE 5.8 mph - N/A   Clear
9:53 PM 39.0 °F 33.4 °F 32.0 °F 76% 30.28 in 10.0 mi NE 8.1 mph - N/A   Clear
10:53 PM 37.9 °F 32.7 °F 30.9 °F 76% 30.27 in 10.0 mi ENE 6.9 mph - N/A   Clear
11:53 PM 36.0 °F 30.3 °F 30.0 °F 79% 30.26 in 10.0 mi NE 6.9 mph - N/A   Clear